ORBCOMM FM111 [+]

Last updated on Jan. 21, 2016, 6:18 a.m. UTC

1 40089U 14040D   16019.91427338  .00000372  00000-0  81555-4 0  9994
2 40089  47.0061 248.3250 0036055 134.3093 226.0765 14.76462752 81750
UTC
Height (km)
Latitude
Longitude
Inclination
Orbital Period
UTC large
Height (km)
Speed (km/s)
/
Latitude / Longitude
Inclination (degrees)
Orbital Period (minutes)
Azimuth
Elevation
Range (km)
Doppler Factor
iOS Compass Heading
iOS Angle